timestamp,wind_dir_avg,wind_spd_avg,wind_spd_max_dir,wind_spd_gust,battery_voltage,lat,long
2022-04-11 00:04:01+00:00,70.0,9.43,64.0,12.42,12.41,47.59359,-54.27349
2022-04-11 00:14:01+00:00,67.0,9.73,68.0,11.36,12.33,47.59359,-54.27349
2022-04-11 00:24:01+00:00,65.0,8.64,60.0,10.17,12.33,47.59359,-54.27349
2022-04-11 00:34:01+00:00,61.0,9.29,54.0,10.74,12.33,47.59359,-54.27349
2022-04-11 00:44:01+00:00,49.0,9.04,56.0,10.1,12.33,47.59359,-54.27349
2022-04-11 00:54:01+00:00,44.0,9.37,50.0,10.73,12.33,47.59359,-54.27349
2022-04-11 01:04:01+00:00,46.0,9.99,46.0,12.61,12.33,47.59359,-54.27349
2022-04-11 01:14:01+00:00,34.0,11.73,46.0,13.74,12.25,47.59359,-54.27349
2022-04-11 01:24:01+00:00,34.0,11.95,44.0,14.06,12.25,47.59359,-54.27349
2022-04-11 01:34:01+00:00,45.0,12.69,52.0,16.33,12.25,47.59359,-54.27349
2022-04-11 01:44:01+00:00,34.0,12.17,36.0,14.63,12.25,47.59359,-54.27349
2022-04-11 01:54:01+00:00,31.0,13.33,33.0,14.53,12.25,47.59359,-54.27349
2022-04-11 02:04:01+00:00,32.0,13.34,45.0,16.31,12.25,47.59359,-54.27349
2022-04-11 02:14:00+00:00,34.0,12.78,38.0,16.53,12.17,47.59359,-54.27349
2022-04-11 02:24:00+00:00,34.0,11.92,47.0,15.13,12.17,47.59359,-54.27349
2022-04-11 02:34:00+00:00,31.0,12.49,36.0,14.88,12.17,47.59359,-54.27349
2022-04-11 02:44:00+00:00,28.0,13.6,22.0,15.02,12.17,47.59359,-54.27349
2022-04-11 02:54:00+00:00,27.0,14.35,24.0,15.58,12.17,47.59359,-54.27349
2022-04-11 03:04:00+00:00,28.0,14.02,24.0,15.52,12.17,47.59359,-54.27349
2022-04-11 03:14:01+00:00,32.0,13.38,41.0,16.39,12.25,47.59359,-54.27349
2022-04-11 03:24:01+00:00,28.0,13.6,40.0,15.63,12.25,47.59359,-54.27349
2022-04-11 03:34:01+00:00,32.0,12.26,41.0,14.64,12.25,47.59359,-54.27349
2022-04-11 03:44:01+00:00,36.0,11.32,36.0,13.59,12.25,47.59359,-54.27349
2022-04-11 03:54:01+00:00,33.0,11.47,32.0,13.2,12.25,47.59359,-54.27349
2022-04-11 04:04:01+00:00,35.0,12.04,36.0,13.21,12.25,47.59359,-54.27349
2022-04-11 04:14:01+00:00,36.0,11.89,36.0,12.97,12.17,47.59359,-54.27349
2022-04-11 04:24:01+00:00,39.0,12.33,45.0,13.07,12.17,47.59359,-54.27349
2022-04-11 04:34:01+00:00,41.0,11.59,45.0,12.77,12.17,47.59359,-54.27349
2022-04-11 04:44:01+00:00,42.0,11.4,48.0,12.94,12.17,47.59359,-54.27349
2022-04-11 04:54:01+00:00,46.0,11.67,45.0,13.59,12.17,47.59359,-54.27349
2022-04-11 05:04:01+00:00,41.0,11.79,45.0,13.01,12.17,47.59359,-54.27349
2022-04-11 05:14:01+00:00,46.0,11.16,50.0,12.35,12.09,47.59359,-54.27349
2022-04-11 05:24:01+00:00,46.0,11.6,46.0,13.01,12.09,47.59359,-54.27349
2022-04-11 05:34:01+00:00,39.0,11.81,38.0,12.78,12.09,47.59359,-54.27349
2022-04-11 05:44:01+00:00,37.0,12.05,41.0,13.09,12.09,47.59359,-54.27349
2022-04-11 05:54:01+00:00,44.0,10.73,50.0,12.22,12.09,47.59359,-54.27349
2022-04-11 06:04:01+00:00,50.0,10.53,51.0,12.46,12.09,47.59359,-54.27349
2022-04-11 06:14:00+00:00,50.0,10.62,54.0,12.5,12.17,47.59359,-54.27349
2022-04-11 06:24:00+00:00,56.0,10.18,56.0,11.96,12.17,47.59359,-54.27349
2022-04-11 06:34:00+00:00,47.0,9.74,56.0,12.23,12.17,47.59359,-54.27349
2022-04-11 06:44:00+00:00,48.0,9.83,55.0,11.58,12.17,47.59359,-54.27349
2022-04-11 06:54:00+00:00,47.0,9.99,42.0,12.09,12.17,47.59359,-54.27349
2022-04-11 07:04:00+00:00,53.0,10.68,54.0,12.44,12.17,47.59359,-54.27349
2022-04-11 07:14:01+00:00,60.0,10.76,61.0,11.9,12.09,47.59359,-54.27349
2022-04-11 07:24:01+00:00,57.0,9.74,60.0,12.07,12.09,47.59359,-54.27349
2022-04-11 07:34:01+00:00,64.0,10.54,62.0,11.63,12.09,47.59359,-54.27349
2022-04-11 07:44:01+00:00,61.0,10.19,63.0,11.47,12.09,47.59359,-54.27349
2022-04-11 07:54:01+00:00,61.0,10.44,62.0,11.41,12.09,47.59359,-54.27349
2022-04-11 08:04:01+00:00,59.0,10.04,60.0,11.29,12.09,47.59359,-54.27349
2022-04-11 08:14:00+00:00,55.0,10.72,57.0,11.27,12.01,47.59359,-54.27349
2022-04-11 08:24:00+00:00,55.0,10.77,57.0,11.59,12.01,47.59359,-54.27349
2022-04-11 08:34:00+00:00,53.0,10.64,55.0,11.63,12.01,47.59359,-54.27349
2022-04-11 08:44:00+00:00,46.0,8.04,61.0,11.01,12.01,47.59359,-54.27349
2022-04-11 08:54:00+00:00,39.0,7.93,55.0,10.47,12.01,47.59359,-54.27349
2022-04-11 09:04:00+00:00,38.0,7.6,53.0,10.74,12.01,47.59359,-54.27349
2022-04-11 09:14:00+00:00,29.0,7.91,36.0,8.85,12.01,47.59359,-54.27349
2022-04-11 09:24:00+00:00,33.0,8.28,48.0,10.52,12.01,47.59359,-54.27349
2022-04-11 09:34:00+00:00,27.0,7.76,30.0,8.79,12.01,47.59359,-54.27349
2022-04-11 09:44:00+00:00,34.0,8.31,50.0,10.68,12.01,47.59359,-54.27349
2022-04-11 09:54:00+00:00,44.0,8.3,55.0,10.84,12.01,47.59359,-54.27349
2022-04-11 10:04:00+00:00,47.0,8.83,55.0,10.77,12.01,47.59359,-54.27349
2022-04-11 10:14:00+00:00,43.0,8.72,50.0,10.73,12.17,47.59359,-54.27349
2022-04-11 10:24:00+00:00,50.0,8.83,57.0,10.26,12.17,47.59359,-54.27349
2022-04-11 10:34:00+00:00,14.0,5.78,14.0,5.97,12.17,47.59359,-54.27349
2022-04-11 10:44:00+00:00,357.0,4.46,349.0,5.01,12.17,47.59359,-54.27349
2022-04-11 10:54:00+00:00,26.0,6.41,30.0,6.96,12.17,47.59359,-54.27349
2022-04-11 11:04:00+00:00,5.0,4.98,31.0,6.26,12.17,47.59359,-54.27349
2022-04-11 11:14:00+00:00,4.0,5.39,26.0,6.2,12.73,47.59359,-54.27349
2022-04-11 11:24:00+00:00,346.0,5.36,339.0,6.1,12.73,47.59359,-54.27349
2022-04-11 11:34:00+00:00,339.0,6.15,342.0,6.64,12.73,47.59359,-54.27349
2022-04-11 11:44:00+00:00,347.0,6.76,347.0,7.27,12.73,47.59359,-54.27349
2022-04-11 11:54:00+00:00,346.0,6.89,345.0,7.81,12.73,47.59359,-54.27349
2022-04-11 12:04:00+00:00,344.0,6.59,342.0,7.18,12.73,47.59359,-54.27349
2022-04-11 12:14:01+00:00,341.0,5.5,338.0,6.41,13.44,47.59359,-54.27349
2022-04-11 12:24:01+00:00,348.0,6.75,345.0,7.9,13.44,47.59359,-54.27349
2022-04-11 12:34:01+00:00,348.0,6.82,358.0,8.01,13.44,47.59359,-54.27349
2022-04-11 12:44:01+00:00,347.0,6.73,6.0,7.7,13.44,47.59359,-54.27349
2022-04-11 12:54:01+00:00,347.0,7.18,345.0,8.06,13.44,47.59359,-54.27349
2022-04-11 13:04:01+00:00,354.0,8.4,348.0,9.82,13.44,47.59359,-54.27349
2022-04-11 13:14:01+00:00,2.0,6.46,7.0,7.73,13.44,47.59359,-54.27349
2022-04-11 13:24:01+00:00,0.0,6.57,356.0,7.45,13.44,47.59359,-54.27349
2022-04-11 13:34:01+00:00,357.0,8.59,4.0,9.33,13.44,47.59359,-54.27349
2022-04-11 13:44:01+00:00,358.0,7.19,0.0,8.1,13.44,47.59359,-54.27349
2022-04-11 13:54:01+00:00,0.0,7.8,1.0,8.57,13.44,47.59359,-54.27349
2022-04-11 14:04:01+00:00,357.0,7.77,353.0,9.05,13.44,47.59359,-54.27349
2022-04-11 14:14:00+00:00,0.0,9.91,3.0,11.51,13.68,47.59359,-54.27349
2022-04-11 14:24:00+00:00,359.0,7.44,358.0,8.66,13.68,47.59359,-54.27349
2022-04-11 14:34:00+00:00,0.0,10.77,0.0,12.47,13.68,47.59359,-54.27349
2022-04-11 14:44:00+00:00,357.0,10.38,353.0,11.27,13.68,47.59359,-54.27349
2022-04-11 14:54:00+00:00,354.0,9.22,354.0,10.92,13.68,47.59359,-54.27349
2022-04-11 15:04:00+00:00,356.0,11.54,358.0,12.86,13.68,47.59359,-54.27349
2022-04-11 15:14:01+00:00,351.0,11.35,347.0,13.15,13.76,47.59359,-54.27349
2022-04-11 15:24:01+00:00,353.0,10.55,357.0,11.96,13.76,47.59359,-54.27349
2022-04-11 15:34:01+00:00,357.0,10.5,3.0,12.45,13.76,47.59359,-54.27349
2022-04-11 15:44:01+00:00,0.0,9.58,2.0,10.52,13.76,47.59359,-54.27349
2022-04-11 15:54:01+00:00,356.0,8.94,357.0,10.33,13.76,47.59359,-54.27349
2022-04-11 16:04:01+00:00,352.0,10.63,353.0,11.86,13.76,47.59359,-54.27349
2022-04-11 16:14:01+00:00,354.0,11.48,349.0,13.01,13.76,47.59359,-54.27349
2022-04-11 16:24:01+00:00,348.0,10.08,345.0,11.78,13.76,47.59359,-54.27349
2022-04-11 16:34:01+00:00,350.0,10.19,1.0,12.01,13.76,47.59359,-54.27349
2022-04-11 16:44:01+00:00,347.0,10.6,350.0,13.17,13.76,47.59359,-54.27349
2022-04-11 16:54:01+00:00,345.0,12.69,343.0,16.44,13.76,47.59359,-54.27349
2022-04-11 17:04:01+00:00,349.0,12.75,353.0,14.42,13.76,47.59359,-54.27349
2022-04-11 17:14:01+00:00,348.0,13.31,348.0,15.91,13.6,47.59359,-54.27349
2022-04-11 17:24:01+00:00,350.0,9.75,350.0,11.79,13.6,47.59359,-54.27349
2022-04-11 17:34:01+00:00,353.0,14.41,354.0,16.74,13.6,47.59359,-54.27349
2022-04-11 17:44:01+00:00,354.0,13.25,354.0,14.84,13.6,47.59359,-54.27349
2022-04-11 17:54:01+00:00,350.0,12.77,351.0,15.17,13.6,47.59359,-54.27349
2022-04-11 18:04:01+00:00,354.0,15.98,354.0,18.34,13.6,47.59359,-54.27349
2022-04-11 18:14:01+00:00,355.0,14.53,355.0,16.44,13.68,47.59359,-54.27349
2022-04-11 18:24:01+00:00,351.0,15.17,353.0,17.61,13.68,47.59359,-54.27349
2022-04-11 18:34:01+00:00,345.0,14.17,337.0,16.88,13.68,47.59359,-54.27349
2022-04-11 18:44:01+00:00,352.0,14.05,335.0,18.1,13.68,47.59359,-54.27349
2022-04-11 18:54:01+00:00,341.0,14.32,333.0,16.9,13.68,47.59359,-54.27349
2022-04-11 19:04:01+00:00,338.0,14.97,332.0,18.04,13.68,47.59359,-54.27349
2022-04-11 19:14:01+00:00,339.0,17.03,335.0,20.33,13.68,47.59359,-54.27349
2022-04-11 19:24:01+00:00,346.0,16.37,355.0,20.0,13.68,47.59359,-54.27349
2022-04-11 19:34:01+00:00,343.0,15.7,332.0,19.28,13.68,47.59359,-54.27349
2022-04-11 19:44:01+00:00,342.0,15.16,332.0,17.41,13.68,47.59359,-54.27349
2022-04-11 19:54:01+00:00,342.0,12.94,335.0,16.4,13.68,47.59359,-54.27349
2022-04-11 20:04:01+00:00,349.0,14.13,351.0,16.37,13.68,47.59359,-54.27349
2022-04-11 20:14:00+00:00,350.0,11.62,344.0,13.41,13.37,47.59359,-54.27349
2022-04-11 20:24:00+00:00,345.0,16.73,350.0,21.41,13.37,47.59359,-54.27349
2022-04-11 20:34:00+00:00,347.0,13.43,355.0,18.3,13.37,47.59359,-54.27349
2022-04-11 20:44:00+00:00,350.0,15.06,349.0,17.35,13.37,47.59359,-54.27349
2022-04-11 20:54:00+00:00,346.0,14.87,332.0,17.27,13.37,47.59359,-54.27349
2022-04-11 21:04:00+00:00,336.0,12.56,335.0,15.2,13.37,47.59359,-54.27349
2022-04-11 21:14:01+00:00,349.0,13.61,348.0,15.85,13.05,47.59359,-54.27349
2022-04-11 21:24:01+00:00,346.0,11.49,333.0,15.12,13.05,47.59359,-54.27349
2022-04-11 21:34:01+00:00,344.0,11.72,345.0,15.69,13.05,47.59359,-54.27349
2022-04-11 21:44:01+00:00,350.0,10.86,352.0,13.4,13.05,47.59359,-54.27349
2022-04-11 21:54:01+00:00,348.0,12.6,340.0,15.47,13.05,47.59359,-54.27349
2022-04-11 22:04:01+00:00,349.0,12.88,350.0,15.17,13.05,47.59359,-54.27349
2022-04-11 22:14:01+00:00,335.0,10.58,330.0,14.59,12.57,47.59359,-54.27349
2022-04-11 22:24:01+00:00,341.0,10.75,339.0,12.24,12.57,47.59359,-54.27349
2022-04-11 22:34:01+00:00,342.0,12.02,329.0,14.85,12.57,47.59359,-54.27349
2022-04-11 22:44:01+00:00,335.0,10.82,327.0,13.26,12.57,47.59359,-54.27349
2022-04-11 22:54:01+00:00,343.0,10.54,329.0,13.83,12.57,47.59359,-54.27349
2022-04-11 23:04:01+00:00,333.0,11.28,331.0,14.18,12.57,47.59359,-54.27349
2022-04-11 23:14:01+00:00,347.0,12.56,350.0,15.24,12.33,47.59359,-54.27349
2022-04-11 23:24:01+00:00,344.0,12.34,334.0,15.9,12.33,47.59359,-54.27349
2022-04-11 23:34:01+00:00,341.0,12.94,349.0,16.6,12.33,47.59359,-54.27349
2022-04-11 23:44:01+00:00,341.0,13.81,335.0,15.56,12.33,47.59359,-54.27349
2022-04-11 23:54:01+00:00,339.0,12.05,333.0,14.68,12.33,47.59359,-54.27349
